Погода Троицкое

Погода Троицкое : погода сейчас, прогноз погоды и архив. Всё, что Вы хотите узнать о погоде Троицкое!

Хотите узнать прогноз погоды Троицкое? Тогда Вам сюда: Погода Троицкое

Поиск расширенной информации на нашем сайте:

Другие новости

Новости СМИ2

Главная страница сайта

Новости сайта

03.07.2017

Напоминаем, что на нашем специализированном сайте Метеоцентр.Азия вы можете получить высокодетализированные автоматические прогнозы погоды по пунктам России, СНГ и мира в авиационном формате (включающие направление и скорость ветра, видимость, явления погоды, количество и форму облачности, нижнюю и верхнюю границу облачности).


Погода Троицкое - сегодня

Время (UTC), дата Ветер
(°,м/с) 
Видим.   Явления Облачность Т
(°С)
Тd
(°С)
f(%) Тe
(°С)
Pmin
(гПа)
dP
(гПа)
Po
(мм)
O2
(г/м3)
Тmin Tmax R s Состояние
почвы
06 15.04.18 350 (С) 20000 м    ясно 
+8.8 -5.5 36 +10  1004.8  -1.3  751  294           
09 15.04.18 010 (С) 20000 м    ясно 
+5.6 -5.8 44 +6  1005  0.2  751  297    +9.6       
12 15.04.18 050 (СВ) 20000 м    ясно 
+1.3 -6.6 56 +2  1006.4  1.3  752  302           
15 15.04.18 310 (СЗ) 20000 м    ясно 
-1.1 -6.1 69 -2  1007.2  0.8  752  305           
18 15.04.18 200 (Ю) 20000 м    ясно 
-3.7 -6.1 83 -3  1007.4  0.1  752  308           
00 16.04.18 190 (Ю) 20000 м    ясно 
+7.3 -6.6 36 +6  1007.5  753  296           
03 16.04.18 230 (ЮЗ) 5{10}  20000 м    ясно 
+11.8 -7 26 +11  1006.4  -1.1  752  291           
06 16.04.18 230 (ЮЗ) 4{10}  20000 м    ясно 
+14.6 -7.8 20 +14  1004.7  -1.7  751  288           
12 16.04.18 220 (ЮЗ) 4{11}  20000 м    ясно 
+8.9 -4.7 38 +8  1006.7  2.3  752  294           
15 16.04.18 220 (ЮЗ) 5{10}  20000 м    ясно 
+6.8 -2.8 50 +5  1007.4  0.7  753  296           
18 16.04.18 210 (ЮЗ) 6-11{11}  20000 м    ясно 
+5.7 -2.5 56 +3  1007.8  0.3  753  297           
00 17.04.18 210 (ЮЗ) 5{11}  20000 м    ясно 
+11.6 -4.1 33 +11  1008.8  0.1  754  292           
03 17.04.18 220 (ЮЗ) 5{11}  20000 м    ясно 
+17.4 -5.5 20 +17  1006.9  -1.8  752  286           
06 17.04.18 230 (ЮЗ) 5-10  20000 м    8/0 средняя, верхняя 
[Ac lent|Ci fib]
+16.7 -4 24 +17  1004.6  -0.2  751  285           
12 17.04.18 220 (ЮЗ) 20000 м    10/0 верхняя 
[Ci sp]
+11.8 +1.9 51 +12  1005.7  0.9  751  290           
15 17.04.18 220 (ЮЗ) 20000 м    8/0 верхняя 
[Ci fib]
+11.5 +2.9 55 +12  1005.6  0.1  751  290           
18 17.04.18 190 (Ю) 20000 м    10/0 верхняя 
[Ci sp]
+9.5 +1.4 57 +9  1004.9  -0.7  751  292           
03 18.04.18 210 (ЮЗ) 10 км  {дождь}  10/0 средняя 
[Ac As]
+13 +3.1 51 +13  1005.8  -1  751  289           
06 18.04.18 190 (Ю) 20000 м    6/0 средняя, верхняя 
[Ac trans|Ci fib]
+16.4 +3.8 43 +16  1004.2  -1.6  750  285           
12 18.04.18 060 (СВ) 20000 м    6/0 средняя, верхняя 
[Ac trans|Ci fib]
+6.5 +3.9 83 +5  1006.5  2.4  752  295           
15 18.04.18 080 (В) 2{15}  20000 м    8/0 верхняя 
[Ci sp]
+6.2 +3.6 83 +6  1006.8  0.3  752  296           
18 18.04.18 090 (В) 20000 м    8/0 средняя, верхняя 
[Ac trans|Ci sp]
+1.9 +0.7 92 +3  1007.4  0.5  752  301           
00 19.04.18 050 (СВ) 20000 м  в посл. час туман  10/0 верхняя 
[Cs]
+6 +2.6 79 +5  1008.5  0.3  753  297           
03 19.04.18 080 (В) 20000 м  {туман}  8/0 верхняя 
[Cs]
+11.6 +3.6 58 +12  1008.1  -0.3  753  291           
06 19.04.18 350 (С) 20000 м  {туман}  10/0 верхняя 
[Cs]
+15.4 +2.9 43 +17  1006.2  -1.9  752  286           
Время (UTC), дата Ветер
(°,м/с) 
Видим.   Явления Облачность Т
(°С)
Тd
(°С)
f(%) Тe
(°С)
Pmin
(гПа)
dP
(гПа)
Po
(мм)
O2
(г/м3)
Тmin Tmax R s Состояние
почвы

Для получения пояснительной информации подведите курсор к названию столбца.

ПОГОДА Троицкое - архив

Всё, что Вы хотите узнать о погоде Троицкое - удобно и подробно!

Выберите нужную дату (начиная с 1 января 2015* года) и нажмите кнопку "Найти".
Будут отображены архивные сводки погоды по пункту Троицкое, начиная с указанной даты.


Отображать данные в формате CSV (для использования в таблицах Excel)


Внимание! Наш архив погоды предназначен исключительно для личного некоммерческого использования в познавательных целях. Если Вам необходимы официальные справки о состоянии погоды (для производственных, юридических, коммерческих и т.п. целей), обращайтесь в органы Росгидромета.

*Примечание: данная дата относится к архиву по метеостанциям СССР (Россия, СНГ, Балтия).
Архив по метеостанциям Зарубежной Европы и Азии (кроме Китая) хранится 10 дней, по другим регионам земного шара (Китай, Африка, Америка, Австралия, Океания) - 1 день.

Троицкое - район местоположения метеостанции


Название, широта, долгота, высота метеостанции:
Троицкое 49.4°ш. 136.6°д. 33 м над ур. моря [Российская Федерация]

Дополнительная информация

В oтличие oт бoльшинства пoгoдных сайтoв мы публикуем пoдрoбную метеoинфoрмацию в детальнoм прoфессиoнальнoм фoрмате.

Характеристики температуры и влажнoсти вoздуха измеряются на высoте 2 м в тени вдали oт зданий и деревьев.
Скoрoсть ветра измеряется на высoте 10 м (на урoвне рoста челoвека скoрoсть ветра ниже в 1.5-2 раза). Если метеoстанция нахoдится в гoрoде или в лесу, тo скoрoсть ветра занижена на 2-4 м/с пo сравнению с oткрытым местoм. Скoрoсть ветра над акватoриями крупных рек и oзёр, а также на вершинах хoлмoв на 2-5 м/с выше, чем в oбычных услoвиях.
Атмoсфернoе давление в разных тoчках местнoсти мoжет значительнo oтличаться oт давления на метеoстанции, в зависимoсти oт услoвий рельефа (при пoдъёме на 10 м давление пoнижается примернo на 1 мм рт.ст.).